Time,TemperatureF,DewpointF,PressureIn,WindDirection,WindDirectionDegrees,WindSpeedMPH,WindSpeedGustMPH,Humidity,HourlyPrecipIn,Conditions,Clouds,dailyrainin,SolarRadiationWatts/m^2,SoftwareType,DateUTC
2013-04-10 00:09:00,50.4,45.0,30.20,NNW,348,0.0,1.0,83,0.00,,,0.00,0,weatherlink.com 1.10,2013-04-10 07:09:00,
2013-04-10 00:24:00,49.9,45.0,30.20,NNW,337,0.0,5.0,84,0.00,,,0.00,0,weatherlink.com 1.10,2013-04-10 07:24:00,
2013-04-10 00:39:00,49.2,45.0,30.20,NNW,337,2.0,3.0,85,0.00,,,0.00,0,weatherlink.com 1.10,2013-04-10 07:39:00,
2013-04-10 00:54:00,49.5,46.0,30.20,NNW,337,1.0,4.0,86,0.00,,,0.00,0,weatherlink.com 1.10,2013-04-10 07:54:00,
2013-04-10 01:09:00,49.9,46.0,30.20,NNW,342,3.0,4.0,85,0.00,,,0.00,0,weatherlink.com 1.10,2013-04-10 08:09:00,
2013-04-10 01:24:00,49.9,46.0,30.20,NNW,342,1.0,4.0,86,0.00,,,0.00,0,weatherlink.com 1.10,2013-04-10 08:24:00,
2013-04-10 01:39:00,50.0,46.0,30.20,NNW,342,0.0,4.0,85,0.00,,,0.00,0,weatherlink.com 1.10,2013-04-10 08:39:00,
2013-04-10 01:54:00,49.6,45.0,30.20,NNW,342,1.0,1.0,85,0.00,,,0.00,0,weatherlink.com 1.10,2013-04-10 08:54:00,
2013-04-10 02:09:00,49.0,45.0,30.20,NNW,342,1.0,4.0,86,0.00,,,0.00,0,weatherlink.com 1.10,2013-04-10 09:09:00,
2013-04-10 02:24:00,49.5,46.0,30.19,NNW,342,1.0,4.0,86,0.00,,,0.00,0,weatherlink.com 1.10,2013-04-10 09:24:00,
2013-04-10 02:39:00,49.5,46.0,30.20,NNW,338,0.0,4.0,86,0.00,,,0.00,0,weatherlink.com 1.10,2013-04-10 09:39:00,
2013-04-10 02:54:00,49.0,45.0,30.19,NNW,338,3.0,3.0,85,0.00,,,0.00,0,weatherlink.com 1.10,2013-04-10 09:54:00,
2013-04-10 03:09:00,48.3,45.0,30.19,NNW,338,3.0,3.0,87,0.00,,,0.00,0,weatherlink.com 1.10,2013-04-10 10:09:00,
2013-04-10 03:24:00,48.3,45.0,30.19,NNW,338,0.0,2.0,88,0.00,,,0.00,0,weatherlink.com 1.10,2013-04-10 10:24:00,
2013-04-10 03:39:00,48.1,45.0,30.19,NNW,338,2.0,3.0,88,0.00,,,0.00,0,weatherlink.com 1.10,2013-04-10 10:39:00,
2013-04-10 03:54:00,48.0,45.0,30.19,NNW,338,0.0,2.0,88,0.00,,,0.00,0,weatherlink.com 1.10,2013-04-10 10:54:00,
2013-04-10 04:09:00,48.5,45.0,30.19,NNW,338,0.0,2.0,88,0.00,,,0.00,0,weatherlink.com 1.10,2013-04-10 11:09:00,
2013-04-10 04:24:00,47.9,45.0,30.19,NNW,338,0.0,2.0,89,0.00,,,0.00,0,weatherlink.com 1.10,2013-04-10 11:24:00,
2013-04-10 04:39:00,47.5,45.0,30.19,NNW,338,0.0,3.0,90,0.00,,,0.00,0,weatherlink.com 1.10,2013-04-10 11:39:00,
2013-04-10 04:54:00,47.2,45.0,30.19,NNW,338,1.0,2.0,90,0.00,,,0.00,0,weatherlink.com 1.10,2013-04-10 11:54:00,
2013-04-10 05:09:00,47.3,45.0,30.19,NNW,338,1.0,4.0,91,0.00,,,0.00,0,weatherlink.com 1.10,2013-04-10 12:09:00,
2013-04-10 05:24:00,47.4,45.0,30.20,NNW,338,1.0,3.0,91,0.00,,,0.00,0,weatherlink.com 1.10,2013-04-10 12:24:00,
2013-04-10 05:39:00,47.7,45.0,30.20,NNW,339,0.0,3.0,91,0.00,,,0.00,0,weatherlink.com 1.10,2013-04-10 12:39:00,
2013-04-10 05:54:00,48.1,46.0,30.20,NNW,342,0.0,5.0,91,0.00,,,0.00,0,weatherlink.com 1.10,2013-04-10 12:54:00,
2013-04-10 06:09:00,47.7,45.0,30.21,NNW,342,1.0,1.0,91,0.00,,,0.00,0,weatherlink.com 1.10,2013-04-10 13:09:00,
2013-04-10 06:24:00,47.6,45.0,30.21,NNW,342,0.0,3.0,91,0.00,,,0.00,0,weatherlink.com 1.10,2013-04-10 13:24:00,
2013-04-10 06:39:00,47.9,46.0,30.22,NNW,342,0.0,4.0,91,0.00,,,0.00,0,weatherlink.com 1.10,2013-04-10 13:39:00,
2013-04-10 06:55:00,47.9,46.0,30.22,NNW,342,0.0,2.0,91,0.00,,,0.00,11,weatherlink.com 1.10,2013-04-10 13:55:00,
2013-04-10 07:10:00,47.8,45.0,30.23,NNW,342,0.0,1.0,91,0.00,,,0.00,18,weatherlink.com 1.10,2013-04-10 14:10:00,
2013-04-10 07:25:00,48.6,46.0,30.24,NNW,342,0.0,2.0,92,0.00,,,0.00,88,weatherlink.com 1.10,2013-04-10 14:25:00,
2013-04-10 07:40:00,51.3,49.0,30.24,NNW,342,1.0,1.0,93,0.00,,,0.00,139,weatherlink.com 1.10,2013-04-10 14:40:00,
2013-04-10 07:55:00,54.0,52.0,30.25,NNW,342,1.0,1.0,91,0.00,,,0.00,199,weatherlink.com 1.10,2013-04-10 14:55:00,
2013-04-10 08:10:00,58.4,53.0,30.25,NNW,342,0.0,3.0,82,0.00,,,0.00,255,weatherlink.com 1.10,2013-04-10 15:10:00,
2013-04-10 08:25:00,60.4,52.0,30.26,NNW,342,1.0,5.0,75,0.00,,,0.00,306,weatherlink.com 1.10,2013-04-10 15:25:00,
2013-04-10 08:40:00,61.2,52.0,30.26,NNW,335,2.0,5.0,73,0.00,,,0.00,359,weatherlink.com 1.10,2013-04-10 15:40:00,
2013-04-10 08:55:00,60.4,51.0,30.26,NW,309,3.0,6.0,71,0.00,,,0.00,413,weatherlink.com 1.10,2013-04-10 15:55:00,
2013-04-10 09:10:00,61.0,52.0,30.25,WNW,302,3.0,6.0,73,0.00,,,0.00,468,weatherlink.com 1.10,2013-04-10 16:10:00,
2013-04-10 09:25:00,60.6,51.0,30.26,NW,311,3.0,9.0,70,0.00,,,0.00,515,weatherlink.com 1.10,2013-04-10 16:25:00,
2013-04-10 09:40:00,58.8,51.0,30.26,North,355,9.0,11.0,74,0.00,,,0.00,564,weatherlink.com 1.10,2013-04-10 16:40:00,
2013-04-10 09:55:00,58.3,50.0,30.26,North,349,4.0,11.0,75,0.00,,,0.00,610,weatherlink.com 1.10,2013-04-10 16:55:00,
2013-04-10 10:10:00,58.6,51.0,30.26,NW,308,2.0,13.0,76,0.00,,,0.00,652,weatherlink.com 1.10,2013-04-10 17:10:00,
2013-04-10 10:25:00,60.2,52.0,30.26,NNW,332,4.0,10.0,75,0.00,,,0.00,698,weatherlink.com 1.10,2013-04-10 17:25:00,
2013-04-10 10:41:00,64.6,55.0,30.25,WNW,294,2.0,6.0,70,0.00,,,0.00,729,weatherlink.com 1.10,2013-04-10 17:41:00,
2013-04-10 10:56:00,64.9,53.0,30.25,NW,309,1.0,7.0,66,0.00,,,0.00,765,weatherlink.com 1.10,2013-04-10 17:56:00,
2013-04-10 11:41:00,60.0,52.0,30.25,NW,320,12.0,18.0,74,0.00,,,0.00,847,weatherlink.com 1.10,2013-04-10 18:41:00,
2013-04-10 11:56:00,59.4,52.0,30.24,NNW,336,12.0,19.0,77,0.00,,,0.00,867,weatherlink.com 1.10,2013-04-10 18:56:00,
2013-04-10 12:12:00,59.2,52.0,30.24,NW,306,17.0,18.0,76,0.00,,,0.00,882,weatherlink.com 1.10,2013-04-10 19:12:00,
2013-04-10 12:26:00,59.8,53.0,30.23,NNW,333,10.0,20.0,77,0.00,,,0.00,895,weatherlink.com 1.10,2013-04-10 19:26:00,
2013-04-10 12:41:00,61.1,53.0,30.23,NW,321,10.0,17.0,74,0.00,,,0.00,904,weatherlink.com 1.10,2013-04-10 19:41:00,
2013-04-10 12:56:00,61.6,52.0,30.23,NW,315,6.0,21.0,71,0.00,,,0.00,907,weatherlink.com 1.10,2013-04-10 19:56:00,
2013-04-10 13:11:00,61.7,52.0,30.23,NNE,13,9.0,16.0,71,0.00,,,0.00,909,weatherlink.com 1.10,2013-04-10 20:11:00,
2013-04-10 13:26:00,60.5,52.0,30.22,North,5,12.0,21.0,74,0.00,,,0.00,905,weatherlink.com 1.10,2013-04-10 20:26:00,
2013-04-10 13:41:00,59.3,52.0,30.21,NNW,348,10.0,21.0,78,0.00,,,0.00,895,weatherlink.com 1.10,2013-04-10 20:41:00,
2013-04-10 13:56:00,59.3,52.0,30.22,NW,317,9.0,21.0,76,0.00,,,0.00,881,weatherlink.com 1.10,2013-04-10 20:56:00,
2013-04-10 14:11:00,60.5,53.0,30.21,North,9,11.0,20.0,75,0.00,,,0.00,867,weatherlink.com 1.10,2013-04-10 21:11:00,
2013-04-10 14:26:00,62.7,54.0,30.22,WNW,302,8.0,20.0,72,0.00,,,0.00,851,weatherlink.com 1.10,2013-04-10 21:26:00,
2013-04-10 14:41:00,61.0,52.0,30.22,WNW,303,14.0,22.0,73,0.00,,,0.00,831,weatherlink.com 1.10,2013-04-10 21:41:00,
2013-04-10 15:26:00,60.2,53.0,30.21,NW,326,12.0,22.0,76,0.00,,,0.00,696,weatherlink.com 1.10,2013-04-10 22:26:00,
2013-04-10 15:41:00,59.4,53.0,30.20,North,350,11.0,18.0,78,0.00,,,0.00,693,weatherlink.com 1.10,2013-04-10 22:41:00,
2013-04-10 15:56:00,59.2,53.0,30.20,NW,325,15.0,19.0,79,0.00,,,0.00,589,weatherlink.com 1.10,2013-04-10 22:56:00,
2013-04-10 16:11:00,60.6,54.0,30.20,NNW,344,4.0,17.0,78,0.00,,,0.00,587,weatherlink.com 1.10,2013-04-10 23:11:00,
2013-04-10 16:26:00,59.3,52.0,30.20,NW,314,5.0,18.0,78,0.00,,,0.00,608,weatherlink.com 1.10,2013-04-10 23:26:00,
2013-04-10 16:41:00,58.3,52.0,30.20,NNW,334,13.0,19.0,79,0.00,,,0.00,550,weatherlink.com 1.10,2013-04-10 23:41:00,
2013-04-10 16:56:00,56.7,51.0,30.19,NNW,335,9.0,22.0,82,0.00,,,0.00,496,weatherlink.com 1.10,2013-04-10 23:56:00,
2013-04-10 17:11:00,56.6,51.0,30.19,North,355,12.0,22.0,81,0.00,,,0.00,445,weatherlink.com 1.10,2013-04-11 00:11:00,
2013-04-10 17:26:00,56.4,51.0,30.18,North,360,12.0,17.0,82,0.00,,,0.00,396,weatherlink.com 1.10,2013-04-11 00:26:00,
2013-04-10 17:41:00,55.5,51.0,30.18,North,350,7.0,16.0,84,0.00,,,0.00,348,weatherlink.com 1.10,2013-04-11 00:41:00,
2013-04-10 17:56:00,55.5,51.0,30.18,NW,315,9.0,19.0,85,0.00,,,0.00,316,weatherlink.com 1.10,2013-04-11 00:56:00,
2013-04-10 18:12:00,55.4,51.0,30.18,North,350,8.0,20.0,84,0.00,,,0.00,244,weatherlink.com 1.10,2013-04-11 01:12:00,
2013-04-10 18:27:00,54.5,50.0,30.18,NW,323,6.0,19.0,86,0.00,,,0.00,190,weatherlink.com 1.10,2013-04-11 01:27:00,
2013-04-10 18:41:00,54.6,51.0,30.18,NW,323,2.0,16.0,86,0.00,,,0.00,153,weatherlink.com 1.10,2013-04-11 01:41:00,
2013-04-10 18:56:00,53.8,50.0,30.18,WNW,303,12.0,15.0,87,0.00,,,0.00,98,weatherlink.com 1.10,2013-04-11 01:56:00,
2013-04-10 19:11:00,53.4,50.0,30.18,NW,322,4.0,17.0,88,0.00,,,0.00,33,weatherlink.com 1.10,2013-04-11 02:11:00,
2013-04-10 19:26:00,53.0,50.0,30.18,NW,317,9.0,14.0,88,0.00,,,0.00,21,weatherlink.com 1.10,2013-04-11 02:26:00,
2013-04-10 19:41:00,52.1,49.0,30.18,NNW,347,7.0,14.0,90,0.00,,,0.00,9,weatherlink.com 1.10,2013-04-11 02:41:00,
2013-04-10 19:56:00,52.2,50.0,30.18,North,355,2.0,10.0,91,0.00,,,0.00,0,weatherlink.com 1.10,2013-04-11 02:56:00,
2013-04-10 20:11:00,52.2,50.0,30.18,NNE,22,7.0,12.0,91,0.00,,,0.00,0,weatherlink.com 1.10,2013-04-11 03:11:00,
2013-04-10 20:42:00,52.4,50.0,30.19,North,360,4.0,9.0,91,0.00,,,0.00,0,weatherlink.com 1.10,2013-04-11 03:42:00,
2013-04-10 20:57:00,52.5,50.0,30.19,North,350,4.0,8.0,90,0.00,,,0.00,0,weatherlink.com 1.10,2013-04-11 03:57:00,
2013-04-10 21:12:00,53.2,50.0,30.19,North,355,3.0,8.0,90,0.00,,,0.00,0,weatherlink.com 1.10,2013-04-11 04:12:00,
2013-04-10 21:27:00,53.6,51.0,30.19,North,355,2.0,8.0,89,0.00,,,0.00,0,weatherlink.com 1.10,2013-04-11 04:27:00,
2013-04-10 21:42:00,52.9,50.0,30.20,NNW,335,2.0,6.0,88,0.00,,,0.00,0,weatherlink.com 1.10,2013-04-11 04:42:00,
2013-04-10 21:57:00,52.6,50.0,30.20,NNW,342,5.0,10.0,89,0.00,,,0.00,0,weatherlink.com 1.10,2013-04-11 04:57:00,
2013-04-10 22:12:00,52.4,50.0,30.20,North,355,2.0,9.0,90,0.00,,,0.00,0,weatherlink.com 1.10,2013-04-11 05:12:00,
2013-04-10 22:27:00,52.4,50.0,30.20,NNW,330,4.0,11.0,90,0.00,,,0.00,0,weatherlink.com 1.10,2013-04-11 05:27:00,
2013-04-10 22:42:00,52.0,49.0,30.20,NNW,348,3.0,12.0,90,0.00,,,0.00,0,weatherlink.com 1.10,2013-04-11 05:42:00,
2013-04-10 22:57:00,52.0,50.0,30.20,North,355,6.0,12.0,91,0.00,,,0.00,0,weatherlink.com 1.10,2013-04-11 05:57:00,
2013-04-10 23:12:00,51.8,49.0,30.19,North,349,2.0,9.0,91,0.00,,,0.00,0,weatherlink.com 1.10,2013-04-11 06:12:00,
2013-04-10 23:27:00,51.5,49.0,30.19,North,349,3.0,7.0,91,0.00,,,0.00,0,weatherlink.com 1.10,2013-04-11 06:27:00,
2013-04-10 23:42:00,51.1,49.0,30.20,North,350,5.0,9.0,91,0.00,,,0.00,0,weatherlink.com 1.10,2013-04-11 06:42:00,
2013-04-10 23:57:00,50.5,48.0,30.20,NNW,338,3.0,13.0,92,0.00,,,0.00,0,weatherlink.com 1.10,2013-04-11 06:57:00,